Showing default

HAWK-9B, 59450

Orbit data source: Space-Track

HAWK-9B, 59450 is a payload satellite owned by HawkEye 360 (US) in LEO that was launched on Sun, 07 Apr 2024 UTC via an FALCON 9 launch vehicle from the Air Force Eastern Test Range (AFETR). Payload-class satellites include a variety of spacecraft equipped with specific instruments for various scientific and technological missions. These include communications satellites like Starlink; space stations such as the ISS; scientific satellites like the Hubble; Earth observation satellites from companies like Planet Labs, Umbra, and HawkEye 360; GPS; miniature CubeSats for education and research; and military/defense satellites.

Loading next visibility...
Identifier
59450, 2024-066J
Orbit
LEO
Last TLE update
17 hours ago
Origin
Manufacturer
UTIAS-SFL
Mission
Operational spacecraft
Bus & Motor
HAWK2G, Unknown motor
Mass
31 kg wet, 30 kg dry
Launch date (UTC)
2024-04-07 (1 year ago)
Launch vehicle
FALCON 9
Launch site
Air Force Eastern Test Range (AFETR)
Object type
Payload
Rocket body
Debris
Shape & HBR
Unknown
Radar Cross Section
Medium (>0.1 m² and <1 m²)

Expand to show TLE details & history

TLE from 17 hours ago
0 HAWK-9B
1 59450U 24066J   25128.67912642  .00002891  00000-0  26801-3 0  9996
2 59450  45.6215 205.0161 0003599   6.2352 353.8573 14.96850661 59179
Epoch: 2025-05-08T16:17Z
Definitive object data (Epoch: 2025-05-08T16:17:56.522Z)
Latitude
-0.00001°
Longitude
93.78441°
Altitude
574.213 km
Speed
7.577 km/s
True Right ascension
13h 40m 03s
True Declination
0° 00' 00"
Sunlit
Object was in full shadow at TLE epoch
Visualization TLE readout
Latitude
33.91146°
Longitude
-130.63906°
Altitude
579.392 km
Speed
7.575 km/s
Apparent Right ascension
01h 31m 54s
Apparent Declination
-1° 39' 22"
Sunlit
Object is in daylight
Visualization observer readout
Local Sidereal Time
17:02:37
Azimuth
65.239° ENE
Elevation
-28.902°
Doppler factor
1
Orbital elements
Apogee altitude
580.623 km
Perigee altitude
575.615 km
Semi-major axis
6,956.256 km
Eccentricity
0.0003599
Inclination
45.6215°
RAAN
205.0161°
Arg. of periapsis
6.2352°
True anomaly
353.85288°
Mean anomaly
353.8573°
Eccentric anomaly
353.85509°
Mean motion
3.74093 °/min
BSTAR
0.00026801
Orbital period
96.23 mins
Loading maneuver chart data...
Loading SW <> Apogee altitude chart data...
Loading historical data...
Loading historical data...
Loading historical data...
Loading historical data...
Loading historical data...
Loading historical data...
Loading historical data...

HAWK-9B Visibility forecast

Observer location: undefined°, undefined°

Span
Click to sort rows by Start time (UTC) header in descending order
Start Az.
Max El. time (UTC)
Max El. Az.
Max El.
End time (UTC)
End Az.
7 mins2025-05-09 10:12:23.561Z277.722° WNW2025-05-09 10:16:23.561Z2.33° NNE34.303°2025-05-09 10:19:23.561Z57.961° ENE
6 mins2025-05-09 11:55:23.561Z312.637° NW2025-05-09 11:57:23.561Z4.671° NNE33.235°2025-05-09 12:01:23.561Z78.926° E
7 mins2025-05-09 13:35:23.561Z293.746° NW2025-05-09 13:38:23.561Z264.917° W44.485°2025-05-09 13:42:23.561Z119.199° SE
4 mins2025-05-09 15:17:23.561Z249.89° W2025-05-09 15:19:23.561Z215.196° SW17.35°2025-05-09 15:21:23.561Z184.504° SSW
5 mins2025-05-10 06:55:23.561Z176.524° S2025-05-10 06:57:23.561Z139.726° SSE20.776°2025-05-10 07:00:23.561Z91.245° ESE
6 mins2025-05-10 08:35:23.561Z248.302° W2025-05-10 08:38:23.561Z49.46° ENE42.958°2025-05-10 08:41:23.561Z63.769° ENE
|